Wind_Speed
29 38 45 44 37 44 53 46 38 32 20 24 23 18 15 12 11 13 18 27 34 31 27 13 14 18 20 20 17 6 6 12 12 18 14 21 10 13 15 12 16 11 10 11
25 30 48 53 51 55 56 44 35 26 22 27 23 19 16 14 13 15 19 26 33 33 26 19 12 14 15 18 21 17 6 4 11 16 16 19 16 14 15 15 16 16 13 15
21 34 53 60 63 59 56 42 31 27 30 29 24 21 18 16 15 16 21 26 32 32 28 20 14 6 10 10 17 17 19 11 10 9 11 14 18 18 16 13 15 19 15 14
36 52 66 67 60 53 45 37 29 32 33 29 25 22 19 17 16 16 20 26 31 34 31 25 16 10 6 7 10 13 18 20 11 10 14 17 16 11 8 7 8 8 8 9
50 63 65 58 52 49 41 34 29 35 34 30 26 23 20 17 16 17 19 23 28 33 34 33 21 13 6 3 5 7 10 14 13 13 10 12 11 10 8 6 4 4 3 2
63 61 58 54 46 39 31 36 40 38 33 30 28 24 21 19 15 16 18 21 24 30 33 35 28 20 12 4 4 2 5 7 9 8 8 7 5 4 3 2 2 1 3 8
65 58 50 46 40 34 32 41 40 36 33 31 28 24 20 17 16 16 17 20 21 25 29 33 33 29 20 9 4 2 3 1 2 3 2 1 1 3 2 3 5 4 5 6
58 55 48 42 31 26 37 43 39 37 33 30 28 25 21 17 15 16 16 17 20 23 27 30 31 34 29 23 19 10 3 4 6 6 5 4 5 5 7 7 8 7 6 7
52 49 45 37 33 37 44 42 39 36 32 29 27 23 20 18 16 15 16 17 19 21 24 26 29 31 31 31 29 25 16 6 4 5 7 8 8 6 6 5 6 8 9 12
48 47 40 34 33 45 44 39 38 35 31 29 26 24 21 17 16 15 15 16 17 19 22 24 25 28 29 32 32 30 27 20 11 3 6 9 10 10 10 10 9 9 10 10
42 36 29 29 33 41 42 39 37 35 31 28 25 22 20 18 15 14 14 14 16 18 20 23 23 24 27 29 28 31 30 29 25 19 9 1 6 10 12 14 12 15 16 16
36 33 33 29 33 42 39 38 37 34 31 28 24 22 19 17 15 13 12 13 14 15 17 19 21 23 24 25 28 28 28 29 27 27 22 19 10 2 8 14 15 17 18 20
32 31 30 31 41 42 38 37 35 33 30 25 23 21 18 15 13 12 11 10 11 12 14 16 18 19 20 21 24 25 26 27 27 27 25 23 22 17 10 2 11 16 20 21
33 32 28 42 46 43 39 36 34 32 28 24 20 19 17 14 11 9 7 7 8 9 10 13 15 17 17 19 21 24 24 25 25 24 25 23 22 21 19 13 8 5 11 18
36 31 36 45 45 40 36 35 33 30 28 23 20 19 17 13 10 7 5 3 3 5 8 11 12 14 16 18 20 21 23 23 23 23 23 22 21 19 17 15 14 11 7 9
36 32 37 46 44 39 35 33 30 28 26 23 17 17 17 14 11 8 5 3 1 3 6 9 11 13 15 15 17 20 21 22 23 22 22 23 21 18 14 13 13 9 9 9
34 31 37 45 45 41 36 33 32 28 24 24 18 15 15 13 10 6 4 3 1 1 5 8 10 12 12 14 16 18 20 21 22 23 23 22 21 17 15 13 9 7 6 6
36 32 40 44 43 41 37 34 31 28 24 25 21 15 13 14 9 4 1 2 1 0 3 8 10 10 11 13 15 17 19 20 22 23 23 23 22 20 16 15 13 11 9 9
36 34 37 43 42 41 36 33 33 29 25 22 22 18 14 12 10 4 1 1 3 1 3 7 10 11 12 12 14 16 19 21 22 23 23 24 24 23 20 17 15 15 14 14
36 36 33 36 39 39 38 35 33 30 26 23 20 16 13 12 11 7 4 5 3 3 3 7 13 12 12 13 14 17 19 21 23 24 24 25 27 26 24 22 20 17 16 16
36 39 33 36 40 42 39 36 31 28 24 22 18 13 10 11 12 10 6 8 6 6 8 9 14 13 13 14 15 18 20 22 24 25 26 27 28 29 28 25 24 21 18 19
36 38 34 40 41 41 41 38 33 29 27 23 18 14 12 13 12 10 8 8 8 7 12 13 15 16 15 15 16 18 21 23 25 26 27 27 29 30 30 28 27 24 21 21
38 37 35 41 43 41 39 37 33 27 22 21 21 17 16 15 13 10 9 9 10 13 13 14 15 16 16 17 18 20 21 24 27 27 29 28 29 32 32 31 30 29 26 24
40 35 35 39 44 43 37 34 28 27 26 25 22 18 18 17 16 13 12 12 13 16 19 17 16 16 16 17 20 23 23 26 29 30 32 33 33 34 34 34 33 33 30 27
40 39 35 34 37 37 36 37 33 28 26 26 24 22 19 20 19 18 18 18 18 21 21 19 15 16 17 19 22 24 25 28 32 34 35 36 36 36 37 37 36 36 34 31
43 41 38 33 34 36 36 35 32 31 28 27 23 21 20 20 21 17 20 22 22 22 18 15 16 16 18 20 23 26 28 30 34 37 38 39 38 38 39 39 39 39 37 34
48 42 41 36 35 35 34 33 34 33 32 28 22 21 22 22 22 20 22 23 23 22 18 19 20 21 22 24 27 29 31 33 37 39 41 41 40 41 40 41 41 42 40 37
Wind_Direction
229 216 210 209 198 203 193 190 196 196 193 181 154 148 130 115 90 64 52 44 42 39 40 73 75 62 51 52 52 47 359 22 30 34 85 77 123 113 104 103 103 123 134 134
228 210 200 192 190 193 187 191 196 193 178 160 151 143 127 118 97 74 61 53 49 44 42 52 88 70 63 52 58 56 47 348 13 38 59 61 73 122 117 107 116 112 120 140
195 184 182 183 183 184 189 192 186 187 171 153 151 139 129 122 102 85 69 59 56 49 45 42 62 87 73 55 49 56 59 67 59 39 51 74 67 123 118 112 127 123 125 127
167 170 174 176 178 183 188 187 182 168 155 151 147 138 130 122 108 91 76 63 62 55 50 43 42 57 95 70 44 50 59 61 68 64 71 93 92 104 107 113 121 128 117 135
158 167 170 170 173 179 181 176 172 155 151 149 145 139 132 122 112 96 84 73 64 61 55 51 40 45 55 108 64 53 57 56 75 81 95 82 87 93 90 96 141 176 216 167
160 161 161 164 169 176 167 162 155 151 149 148 145 140 134 124 115 98 87 80 72 66 61 58 50 38 30 42 74 116 52 68 95 91 82 95 91 93 97 141 120 295 261 249
161 161 159 166 170 167 158 157 150 151 150 149 145 140 133 127 115 103 90 80 76 72 65 63 60 55 39 20 11 309 261 283 118 136 83 171 211 221 249 275 244 238 245 253
164 168 175 181 181 167 159 155 152 151 149 147 144 140 137 129 119 105 91 81 72 70 66 66 65 63 59 53 44 25 318 273 254 232 238 236 233 252 267 264 241 248 246 240
167 172 179 180 178 159 159 153 153 150 148 147 147 143 141 131 123 108 93 82 72 67 66 63 63 65 66 63 59 58 41 8 279 267 252 243 245 251 249 237 231 243 253 253
174 176 177 173 158 157 156 154 154 151 150 148 147 144 141 133 123 112 99 85 78 70 67 65 61 63 64 65 64 64 64 58 37 351 253 252 251 245 248 240 233 242 259 264
169 170 167 162 161 162 156 157 154 152 152 149 149 146 144 138 129 116 102 91 82 75 70 64 61 58 61 59 58 64 62 65 62 62 59 298 258 243 245 250 255 253 254 257
167 169 167 163 159 162 158 158 157 155 152 151 150 146 142 142 134 123 109 94 84 77 70 66 61 58 52 50 53 54 62 61 64 63 67 68 63 68 249 253 256 262 264 262
175 169 163 163 164 163 161 161 158 157 152 152 153 149 146 143 138 128 111 100 86 74 69 65 61 57 51 49 52 51 48 47 55 56 58 61 66 68 65 286 257 260 263 268
177 167 165 164 166 166 164 161 162 156 154 154 155 154 148 143 139 131 117 93 79 74 67 63 59 52 48 48 47 44 40 40 41 46 49 52 55 61 63 56 40 322 276 271
172 161 165 167 171 169 163 164 163 159 161 160 159 160 155 152 153 146 133 111 70 55 60 56 53 50 45 43 40 40 37 33 34 36 38 38 42 47 52 55 52 38 354 310
162 153 163 171 172 171 166 165 164 164 166 164 161 164 161 162 161 160 156 166 114 43 42 44 39 36 37 37 37 36 33 29 26 28 28 28 26 28 34 38 38 37 28 15
170 165 171 175 173 171 170 170 171 171 169 173 168 162 166 166 161 157 153 180 166 47 27 29 28 25 24 29 30 30 30 25 22 19 20 21 18 14 13 13 5 6 5 355
174 177 174 173 172 174 177 176 176 177 175 179 178 175 174 176 169 147 121 200 219 127 18 16 9 8 8 16 21 22 22 20 17 13 12 11 10 9 3 358 345 330 324 324
179 178 177 179 177 179 182 184 185 183 178 179 184 188 188 188 197 200 336 279 246 232 359 9 2 359 355 358 8 11 12 12 10 9 5 3 2 1 359 353 341 330 323 312
186 186 183 180 179 186 188 189 185 182 183 184 185 190 197 205 209 221 286 307 244 247 308 351 351 354 349 349 355 358 2 4 0 2 359 357 354 353 354 350 343 331 322 311
188 189 190 189 187 184 188 191 188 188 187 191 196 201 213 214 216 228 271 299 278 249 289 324 328 345 342 344 348 349 352 354 353 352 352 351 349 346 346 345 341 331 325 316
187 190 193 192 190 191 192 191 191 194 194 200 207 221 231 220 220 235 264 302 315 285 283 301 309 333 336 342 341 343 345 345 345 345 343 343 343 341 339 339 337 331 324 316
185 186 189 193 195 195 196 194 195 199 197 206 216 225 227 223 228 246 275 296 312 314 305 297 306 318 327 334 334 335 338 338 336 338 337 335 338 335 334 332 334 330 323 319
184 187 193 194 195 199 202 200 200 204 206 210 222 229 227 230 241 254 278 293 296 309 303 311 311 308 319 327 329 329 331 332 331 334 334 332 332 330 329 328 330 327 323 319
191 192 195 197 200 201 203 205 205 208 212 217 228 229 231 241 252 260 274 290 298 309 309 307 303 311 312 315 319 321 326 330 328 331 331 329 327 326 324 324 326 324 322 320
196 197 199 200 202 203 207 209 215 217 218 221 229 234 239 249 258 268 278 286 298 313 313 315 316 317 317 317 319 319 322 325 323 326 328 327 325 322 321 321 322 321 320 320
201 200 200 201 202 204 208 210 213 214 216 218 224 237 243 252 261 270 279 285 297 302 303 313 311 316 319 320 321 319 319 320 319 322 324 323 322 320 319 318 320 320 321 319
Height
5483 5491 5503 5516 5533 5541 5555 5566 5575 5583 5594 5605 5607 5613 5617 5621 5624 5623 5622 5618 5612 5605 5600 5598 5596 5595 5595 5592 5590 5588 5589 5588 5589 5590 5589 5588 5590 5594 5598 5601 5604 5607 5610 5617
5471 5478 5490 5508 5524 5536 5550 5562 5573 5581 5592 5602 5606 5612 5617 5621 5623 5623 5622 5619 5614 5608 5604 5602 5599 5599 5599 5598 5596 5593 5593 5593 5594 5594 5595 5594 5594 5596 5600 5603 5606 5611 5616 5623
5464 5473 5488 5505 5522 5538 5551 5562 5571 5581 5593 5599 5605 5611 5616 5620 5622 5623 5623 5621 5615 5611 5606 5602 5602 5602 5602 5601 5600 5599 5596 5595 5596 5599 5600 5601 5602 5601 5604 5608 5614 5618 5621 5625
5461 5475 5494 5510 5526 5539 5552 5561 5571 5584 5592 5599 5605 5611 5616 5619 5622 5624 5623 5622 5618 5615 5610 5607 5604 5603 5603 5604 5603 5602 5601 5601 5601 5602 5603 5606 5608 5612 5614 5616 5619 5622 5625 5627
5471 5487 5502 5517 5533 5541 5554 5564 5573 5582 5590 5598 5605 5611 5616 5619 5623 5624 5624 5623 5620 5618 5614 5611 5608 5605 5605 5606 5606 5605 5605 5605 5605 5606 5608 5609 5612 5615 5617 5618 5621 5622 5623 5625
5482 5497 5511 5522 5531 5544 5555 5564 5574 5583 5591 5599 5606 5612 5616 5620 5624 5625 5625 5625 5623 5621 5619 5615 5611 5608 5606 5606 5607 5607 5608 5608 5609 5610 5612 5613 5616 5617 5619 5620 5621 5622 5625 5629
5492 5505 5519 5529 5537 5546 5557 5567 5575 5584 5593 5600 5606 5612 5617 5621 5624 5626 5626 5626 5626 5626 5622 5619 5616 5612 5609 5607 5606 5607 5608 5610 5610 5612 5613 5615 5616 5617 5618 5620 5621 5624 5626 5627
5500 5511 5524 5534 5542 5551 5559 5569 5578 5586 5594 5601 5608 5613 5617 5622 5624 5626 5627 5627 5627 5627 5625 5622 5620 5617 5615 5610 5607 5607 5607 5608 5609 5611 5612 5614 5615 5616 5617 5618 5620 5620 5623 5627
5509 5520 5529 5537 5547 5555 5564 5572 5582 5589 5596 5604 5609 5614 5619 5622 5625 5628 5629 5629 5629 5628 5627 5625 5622 5621 5619 5614 5613 5610 5608 5605 5608 5608 5610 5612 5614 5615 5616 5617 5618 5619 5622 5624
5518 5525 5533 5542 5551 5558 5567 5576 5585 5591 5599 5605 5611 5615 5620 5624 5627 5629 5630 5630 5631 5631 5630 5628 5626 5624 5622 5618 5618 5615 5613 5609 5607 5607 5608 5610 5611 5614 5615 5618 5622 5620 5621 5623
5525 5532 5540 5546 5554 5564 5570 5580 5587 5593 5600 5607 5612 5617 5621 5625 5628 5630 5632 5633 5633 5633 5632 5630 5629 5627 5625 5622 5621 5619 5616 5613 5611 5609 5607 5609 5608 5611 5613 5614 5617 5618 5619 5620
5529 5535 5543 5552 5559 5567 5575 5583 5590 5595 5602 5608 5614 5619 5623 5626 5629 5631 5633 5635 5635 5634 5634 5633 5631 5628 5628 5625 5623 5621 5619 5618 5616 5614 5612 5608 5607 5607 5608 5610 5611 5613 5614 5615
5532 5539 5548 5554 5563 5571 5578 5586 5592 5598 5603 5611 5616 5620 5624 5627 5630 5632 5635 5636 5636 5636 5635 5634 5632 5631 5630 5628 5625 5624 5622 5620 5618 5617 5616 5612 5610 5608 5606 5605 5605 5606 5607 5608
5537 5544 5552 5559 5566 5574 5581 5588 5595 5600 5606 5613 5618 5621 5625 5628 5631 5633 5635 5636 5636 5637 5636 5635 5633 5632 5632 5629 5628 5626 5625 5623 5621 5619 5617 5615 5613 5611 5608 5606 5604 5603 5602 5602
5543 5550 5557 5562 5570 5577 5582 5590 5597 5601 5609 5614 5618 5622 5626 5629 5632 5634 5635 5636 5637 5637 5637 5636 5634 5633 5632 5630 5628 5627 5626 5624 5622 5620 5618 5616 5615 5612 5610 5607 5606 5603 5600 5598
5547 5554 5559 5565 5572 5579 5585 5592 5598 5604 5610 5615 5619 5623 5626 5629 5632 5634 5635 5636 5637 5637 5637 5636 5635 5634 5633 5631 5629 5627 5625 5623 5622 5620 5617 5616 5614 5611 5609 5607 5605 5602 5599 5597
5550 5556 5561 5567 5574 5581 5588 5596 5600 5605 5610 5616 5620 5623 5627 5630 5632 5634 5635 5636 5636 5637 5636 5636 5635 5633 5633 5631 5629 5627 5625 5623 5621 5618 5617 5614 5612 5610 5608 5606 5603 5600 5598 5595
5553 5558 5562 5569 5577 5583 5589 5594 5599 5605 5609 5615 5619 5624 5626 5629 5631 5633 5634 5635 5636 5636 5636 5635 5634 5633 5632 5630 5628 5625 5623 5622 5619 5617 5615 5612 5609 5607 5605 5602 5599 5597 5595 5592
5555 5560 5566 5571 5576 5583 5590 5595 5600 5605 5611 5614 5619 5623 5626 5628 5630 5632 5633 5634 5634 5635 5635 5634 5633 5632 5630 5628 5625 5623 5621 5620 5617 5615 5612 5609 5606 5604 5601 5599 5595 5592 5591 5588
5556 5563 5567 5571 5577 5583 5588 5595 5599 5605 5609 5613 5617 5621 5624 5627 5628 5630 5632 5632 5632 5633 5633 5632 5631 5629 5627 5625 5623 5621 5619 5617 5614 5612 5609 5606 5603 5599 5597 5594 5590 5587 5585 5582
5556 5562 5567 5572 5576 5582 5588 5593 5598 5603 5609 5612 5616 5619 5622 5625 5626 5628 5629 5629 5630 5631 5631 5629 5628 5626 5624 5622 5620 5618 5615 5613 5611 5607 5604 5601 5597 5594 5591 5588 5584 5581 5579 5575
5557 5562 5566 5571 5576 5581 5587 5592 5598 5602 5606 5610 5614 5617 5620 5621 5623 5625 5626 5626 5627 5627 5627 5626 5624 5623 5620 5618 5616 5614 5611 5608 5606 5603 5599 5596 5592 5589 5585 5581 5577 5574 5571 5567
5554 5559 5563 5568 5573 5579 5585 5590 5597 5601 5605 5608 5611 5614 5616 5618 5621 5622 5623 5623 5623 5623 5622 5621 5621 5618 5616 5614 5612 5609 5606 5603 5600 5598 5594 5590 5587 5583 5579 5575 5571 5567 5563 5560
5550 5556 5561 5565 5570 5577 5585 5590 5593 5597 5601 5604 5607 5610 5613 5615 5617 5618 5618 5620 5620 5619 5617 5616 5615 5613 5611 5609 5607 5604 5601 5598 5595 5592 5588 5584 5581 5577 5572 5568 5564 5559 5554 5550
5546 5551 5557 5563 5569 5574 5579 5585 5589 5593 5598 5601 5604 5606 5610 5611 5613 5614 5614 5614 5614 5613 5611 5610 5608 5607 5606 5604 5601 5599 5595 5593 5589 5586 5582 5578 5573 5569 5564 5560 5555 5550 5545 5541
5541 5546 5553 5559 5564 5571 5576 5580 5585 5589 5593 5597 5600 5602 5605 5607 5608 5610 5609 5609 5608 5608 5605 5604 5603 5602 5599 5597 5595 5592 5589 5586 5582 5579 5574 5570 5566 5560 5556 5551 5546 5541 5536 5532
5535 5544 5549 5555 5560 5566 5571 5574 5579 5583 5588 5592 5594 5597 5599 5601 5602 5604 5603 5603 5603 5601 5600 5598 5597 5595 5593 5591 5588 5585 5582 5579 5575 5571 5566 5561 5557 5551 5547 5541 5536 5531 5527 5521